Location: Batang Balui
(2.7000°N, 113.7833°E)
Time: 01:49:33
(UTC+00:00)

CZ-6A DEB - Pass Details

Date: 10 December 2023
Orbit: 666 x 823 km, 98.6° (Epoch: 23 February)

Event Time Altitude Azimuth Distance (km) Brightness Sun altitude
Rises 10:34:57 0° 166° (SSE) 3,265 ? -5.1°
Reaches altitude 10° 10:37:13 10° 165° (SSE) 2,359 ? -5.6°
Maximum altitude 10:42:28 84° 78° (ENE) 823 ? -6.8°
Drops below altitude 10° 10:47:53 10° 350° (N) 2,431 ? -8.0°
Sets 10:50:16 0° 349° (N) 3,372 ? -8.6°
